FW3267 Weather Reports


Display with metric or nautical units.
time (UTC)temp
F
wind
direction
speed
MPH
gust
MPH
rain 1hr
in
rain 24hr
in
rain mn
in
humidity
%
barometer
mb
20240620215022 89 206 0.0 3.0 0.00 0.00 0.00 52 1023.7
20240620214524 89 197 0.0 3.0 0.00 0.00 0.00 51 1023.8
20240620214023 89 95 0.0 6.0 0.00 0.00 0.00 51 1023.9
20240620213523 89 103 0.0 6.0 0.00 0.00 0.00 54 1023.9
20240620213022 88 129 0.0 7.0 0.00 0.00 0.00 54 1024.0
20240620212525 88 142 0.0 7.0 0.00 0.00 0.00 54 1024.1
20240620212020 87 137 0.0 4.0 0.00 0.00 0.00 59 1024.2
20240620211521 87 123 0.0 4.0 0.00 0.00 0.00 58 1024.2
20240620211021 87 135 0.0 6.0 0.00 0.00 0.00 58 1024.2
20240620210515 88 155 1.0 6.0 0.00 0.00 0.00 57 1024.2
20240620210008 87 210 0.0 5.0 0.00 0.00 0.00 58 1024.3
20240620205509 87 136 0.0 3.0 0.00 0.00 0.00 58 1024.4
20240620204009 87 180 0.0 7.0 0.00 0.00 0.00 57 1024.4
20240620203508 87 78 0.0 7.0 0.00 0.00 0.00 58 1024.5
20240620203010 87 166 0.0 1.0 0.00 0.00 0.00 61 1024.5
20240620202508 86 122 0.0 1.0 0.00 0.00 0.00 61 1024.5
20240620202011 86 136 0.0 3.0 0.00 0.00 0.00 63 1024.6
20240620201508 86 49 0.0 3.0 0.00 0.00 0.00 62 1024.6
20240620201007 86 191 0.0 1.0 0.00 0.00 0.00 62 1024.7
20240620200505 87 47 0.0 7.0 0.00 0.00 0.00 59 1024.7
20240620200005 87 140 0.0 7.0 0.00 0.00 0.00 60 1024.9
20240620195504 87 249 0.0 0.0 0.00 0.00 0.00 60 1024.7
20240620195005 87 122 0.0 1.0 0.00 0.00 0.00 60 1024.9
20240620193447 87 138 0.0 5.0 0.00 0.00 0.00 58 1025.0
20240620192941 87 160 0.0 1.0 0.00 0.00 0.00 58 1024.9
20240620192435 87 134 0.0 2.0 0.00 0.00 0.00 56 1025.0
20240620191929 87 148 0.0 5.0 0.00 0.00 0.00 55 1025.0
20240620191423 88 41 0.0 5.0 0.00 0.00 0.00 56 1024.9
20240620190917 88 66 0.0 4.0 0.00 0.00 0.00 58 1024.9
20240620190411 88 59 0.0 5.0 0.00 0.00 0.00 58 1024.9
20240620185905 87 128 0.0 5.0 0.00 0.00 0.00 58 1024.9
20240620185405 87 105 0.0 4.0 0.00 0.00 0.00 57 1024.9
20240620184902 88 48 1.0 5.0 0.00 0.00 0.00 57 1025.0
20240620184402 87 151 0.0 5.0 0.00 0.00 0.00 59 1025.0
20240620183903 86 114 0.0 2.0 0.00 0.00 0.00 60 1025.1
20240620183400 87 70 0.0 6.0 0.00 0.00 0.00 59 1025.1
20240620182902 87 150 0.0 6.0 0.00 0.00 0.00 60 1025.2
20240620182402 86 115 1.0 7.0 0.00 0.00 0.00 57 1025.2
20240620181858 87 63 1.0 7.0 0.00 0.00 0.00 59 1025.2
20240620181400 87 64 0.0 8.0 0.00 0.00 0.00 57 1025.3
20240620180357 86 163 0.0 5.0 0.00 0.00 0.00 59 1025.3
20240620175856 87 266 1.0 7.0 0.00 0.00 0.00 57 1025.3
20240620174854 87 66 0.0 4.0 0.00 0.00 0.00 56 1025.4
20240620174356 87 127 0.0 4.0 0.00 0.00 0.00 63 1025.4
20240620173854 87 120 0.0 4.0 0.00 0.00 0.00 61 1025.5
20240620173359 87 30 0.0 1.0 0.00 0.00 0.00 61 1025.5
20240620172858 87 142 0.0 1.0 0.00 0.00 0.00 62 1025.6
20240620171855 86 138 0.0 1.0 0.00 0.00 0.00 64 1025.6
20240620170834 87 11 0.0 1.0 0.00 0.00 0.00 57 1025.6
20240620165823 87 148 0.0 3.0 0.00 0.00 0.00 56 1025.6
20240620165318 87 151 0.0 5.0 0.00 0.00 0.00 61 1025.6
20240620164810 86 221 0.0 5.0 0.00 0.00 0.00 62 1025.6
20240620164304 85 267 0.0 3.0 0.00 0.00 0.00 61 1025.6
20240620163252 86 295 0.0 5.0 0.00 0.00 0.00 62 1025.5
20240620162746 86 153 1.0 5.0 0.00 0.00 0.00 64 1025.6
20240620162240 86 243 0.0 5.0 0.00 0.00 0.00 65 1025.6
20240620161734 85 246 0.0 3.0 0.00 0.00 0.00 66 1025.6
20240620160718 84 232 0.0 4.0 0.00 0.00 0.00 67 1025.6
20240620155704 84 246 0.0 2.0 0.00 0.00 0.00 64 1025.6
20240620155158 84 252 0.0 3.0 0.00 0.00 0.00 68 1025.6
20240620154658 84 246 1.0 6.0 0.00 0.00 0.00 65 1025.7
20240620154147 84 245 0.0 5.0 0.00 0.00 0.00 66 1025.7
20240620153640 84 148 0.0 3.0 0.00 0.00 0.00 66 1025.7
20240620152627 83 246 0.0 2.0 0.00 0.00 0.00 66 1025.8
20240620152122 83 186 0.0 5.0 0.00 0.00 0.00 67 1026.0
20240620151111 83 175 1.0 4.0 0.00 0.00 0.00 69 1025.8
20240620150605 83 132 0.0 3.0 0.00 0.00 0.00 71 1025.7
20240620150100 83 165 0.0 3.0 0.00 0.00 0.00 70 1025.8
20240620145552 83 145 1.0 5.0 0.00 0.00 0.00 71 1025.8
20240620145050 83 193 0.0 5.0 0.00 0.00 0.00 70 1025.8
20240620144540 83 233 0.0 2.0 0.00 0.00 0.00 71 1025.9
20240620144034 82 151 0.0 1.0 0.00 0.00 0.00 71 1025.8
20240620143527 82 148 0.0 4.0 0.00 0.00 0.00 71 1025.9
20240620143022 82 239 0.0 4.0 0.00 0.00 0.00 72 1025.9
20240620142516 81 146 0.0 2.0 0.00 0.00 0.00 72 1025.9
20240620142010 81 160 0.0 4.0 0.00 0.00 0.00 71 1026.0
20240620141517 82 170 0.0 4.0 0.00 0.00 0.00 73 1025.9
20240620140452 81 224 0.0 2.0 0.00 0.00 0.00 76 1025.8
20240620135946 81 161 0.0 2.0 0.00 0.00 0.00 77 1025.8
20240620135440 80 172 0.0 0.0 0.00 0.00 0.00 79 1025.8
20240620134934 80 235 0.0 3.0 0.00 0.00 0.00 80 1025.8
20240620134445 80 148 0.0 3.0 0.00 0.00 0.00 79 1025.7
20240620133923 79 205 0.0 2.0 0.00 0.00 0.00 80 1025.7
20240620133416 79 142 0.0 6.0 0.00 0.00 0.00 78 1025.8
20240620132912 80 233 0.0 6.0 0.00 0.00 0.00 78 1025.8
20240620132404 80 122 0.0 2.0 0.00 0.00 0.00 78 1025.8
20240620131858 79 125 0.0 0.0 0.00 0.00 0.00 81 1025.7
20240620130847 79 129 0.0 1.0 0.00 0.00 0.00 80 1025.6
20240620130341 79 96 0.0 0.0 0.00 0.00 0.00 79 1025.7
20240620125836 79 187 0.0 0.0 0.00 0.00 0.00 79 1025.7
20240620124822 78 70 0.0 1.0 0.00 0.00 0.00 82 1025.5
20240620124319 78 122 0.0 0.0 0.00 0.00 0.00 85 1025.5
20240620123301 77 132 0.0 0.0 0.00 0.00 0.00 85 1025.5
20240620122253 76 137 0.0 0.0 0.00 0.00 0.00 87 1025.3
20240620121739 76 146 0.0 0.0 0.00 0.00 0.00 89 1025.3
20240620120727 75 117 0.0 0.0 0.00 0.00 0.00 91 1025.3
20240620120221 74 130 0.0 0.0 0.00 0.00 0.00 92 1025.3
20240620115715 73 130 0.0 0.0 0.00 0.00 0.00 93 1025.2
20240620115209 73 129 0.0 0.0 0.00 0.00 0.00 93 1025.2
20240620114703 72 130 0.0 0.0 0.00 0.00 0.00 93 1025.3
20240620114157 71 134 0.0 0.0 0.00 0.00 0.00 93 1025.2
20240620113651 71 134 0.0 0.0 0.00 0.00 0.00 93 1025.2
20240620112639 70 134 0.0 0.0 0.00 0.00 0.00 93 1025.1
20240620112132 69 134 0.0 0.0 0.00 0.00 0.00 93 1025.1
20240620111628 68 134 0.0 0.0 0.00 0.00 0.00 93 1025.0
20240620111121 68 134 0.0 0.0 0.00 0.00 0.00 93 1024.9
20240620110615 67 193 0.0 0.0 0.00 0.00 0.00 93 1024.9
20240620110109 67 193 0.0 0.0 0.00 0.00 0.00 93 1024.7
20240620105609 67 193 0.0 0.0 0.00 0.00 0.00 93 1024.7
20240620105106 67 193 0.0 0.0 0.00 0.00 0.00 93 1024.7
20240620104107 67 193 0.0 0.0 0.00 0.00 0.00 93 1024.7
20240620103607 67 193 0.0 0.0 0.00 0.00 0.00 93 1024.5
20240620102101 68 193 0.0 0.0 0.00 0.00 0.00 93 1024.5
20240620101600 68 193 0.0 0.0 0.00 0.00 0.00 93 1024.5
20240620100557 68 193 0.0 0.0 0.00 0.00 0.00 93 1024.3
20240620100054 68 193 0.0 0.0 0.00 0.00 0.00 93 1024.4
20240620095553 68 193 0.0 0.0 0.00 0.00 0.00 93 1024.4
20240620095050 68 193 0.0 0.0 0.00 0.00 0.00 93 1024.3
20240620094547 69 193 0.0 0.0 0.00 0.00 0.00 93 1024.3
20240620094046 69 166 0.0 0.0 0.00 0.00 0.00 93 1024.2
20240620093547 69 166 0.0 0.0 0.00 0.00 0.00 93 1024.1
20240620093046 69 167 0.0 0.0 0.00 0.00 0.00 93 1024.1
20240620092546 69 167 0.0 0.0 0.00 0.00 0.00 93 1024.1
20240620092053 69 166 0.0 0.0 0.00 0.00 0.00 93 1024.0
20240620091545 69 166 0.0 0.0 0.00 0.00 0.00 93 1024.0
20240620091038 69 167 0.0 0.0 0.00 0.00 0.00 93 1024.0
20240620090039 70 167 0.0 0.0 0.00 0.00 0.00 93 1024.0
20240620085533 70 167 0.0 0.0 0.00 0.00 0.00 93 1023.9
20240620085014 70 168 0.0 0.0 0.00 0.00 0.00 92 1023.9
20240620084510 70 167 0.0 0.0 0.00 0.00 0.00 92 1023.8
20240620084002 70 167 0.0 0.0 0.00 0.00 0.00 92 1023.8
20240620082950 70 167 0.0 0.0 0.00 0.00 0.00 92 1023.8
20240620082446 71 167 0.0 0.0 0.00 0.00 0.00 92 1023.8
20240620081938 71 167 0.0 0.0 0.00 0.00 0.00 92 1023.7
20240620081434 71 141 0.0 0.0 0.00 0.00 0.00 92 1023.7
20240620080421 71 138 0.0 0.0 0.00 0.00 0.00 92 1023.7
20240620075914 71 145 0.0 0.0 0.00 0.00 0.00 92 1023.8
20240620074859 71 165 0.0 0.0 0.00 0.00 0.00 91 1023.7
20240620074400 71 165 0.0 0.0 0.00 0.00 0.00 91 1023.7
20240620073858 71 165 0.0 0.0 0.00 0.00 0.00 91 1023.7
20240620073355 71 148 0.0 0.0 0.00 0.00 0.00 91 1023.7
20240620072854 71 156 0.0 0.0 0.00 0.00 0.00 90 1023.7
20240620072355 72 157 0.0 0.0 0.00 0.00 0.00 90 1023.7
20240620071852 72 129 0.0 0.0 0.00 0.00 0.00 90 1023.7
20240620070853 73 140 0.0 0.0 0.00 0.00 0.00 89 1023.8
20240620070354 73 155 0.0 0.0 0.00 0.00 0.00 89 1023.8
20240620065351 73 133 0.0 0.0 0.00 0.00 0.00 89 1023.7
20240620064852 73 146 0.0 0.0 0.00 0.00 0.00 89 1023.7
20240620063851 74 155 0.0 1.0 0.00 0.00 0.00 89 1023.7
20240620063352 74 130 0.0 1.0 0.00 0.00 0.00 88 1023.7
20240620062851 74 137 0.0 1.0 0.00 0.00 0.00 88 1023.7
20240620062345 74 192 0.0 1.0 0.00 0.00 0.00 88 1023.6
20240620061844 74 134 0.0 1.0 0.00 0.00 0.00 88 1023.5
20240620061345 74 200 0.0 1.0 0.00 0.00 0.00 88 1023.5
20240620060844 74 138 0.0 1.0 0.00 0.00 0.00 87 1023.5
20240620060342 74 136 0.0 1.0 0.00 0.00 0.00 87 1023.5
20240620055842 74 166 0.0 1.0 0.00 0.00 0.00 87 1023.6
20240620054841 74 148 0.0 0.0 0.00 0.00 0.00 86 1023.6
20240620054341 75 139 0.0 5.0 0.00 0.00 0.00 86 1023.5
20240620053341 75 117 0.0 0.0 0.00 0.00 0.00 85 1023.6
20240620052839 75 161 0.0 1.0 0.00 0.00 0.00 85 1023.5
20240620051840 75 113 0.0 1.0 0.00 0.00 0.00 85 1023.6
20240620051337 75 125 0.0 1.0 0.00 0.00 0.00 85 1023.6
20240620050839 75 179 0.0 1.0 0.00 0.00 0.00 85 1023.6
20240620050333 75 117 0.0 1.0 0.00 0.00 0.00 85 1023.5
20240620045827 75 113 0.0 0.0 0.00 0.00 0.00 85 1023.6
20240620045320 75 124 0.0 1.0 0.00 0.00 0.00 85 1023.5
20240620044814 75 122 0.0 1.0 0.00 0.00 0.00 84 1023.5
20240620043802 76 138 0.0 0.0 0.00 0.00 0.00 84 1023.5
20240620043256 76 65 0.0 0.0 0.00 0.00 0.00 84 1023.6
20240620042750 76 143 0.0 1.0 0.00 0.00 0.00 84 1023.7
20240620042244 76 134 0.0 1.0 0.00 0.00 0.00 84 1023.6
20240620041738 76 131 0.0 0.0 0.00 0.00 0.00 84 1023.5
20240620041232 76 80 0.0 0.0 0.00 0.00 0.00 84 1023.6
20240620040725 76 130 0.0 0.0 0.00 0.00 0.00 84 1023.6
20240620040221 76 160 0.0 0.0 0.00 0.00 0.00 84 1023.5
20240620035207 76 126 0.0 0.0 0.00 0.00 0.00 84 1023.5
20240620034702 76 155 0.0 0.0 0.00 0.00 0.00 84 1023.5
20240620034156 76 141 0.0 0.0 0.00 0.00 0.00 83 1023.5
20240620033145 76 126 0.0 0.0 0.00 0.00 0.00 83 1023.5
20240620032637 76 131 0.0 0.0 0.00 0.00 0.00 83 1023.4
20240620032131 76 127 0.0 0.0 0.00 0.00 0.00 83 1023.4
20240620031626 76 141 0.0 0.0 0.00 0.00 0.00 83 1023.4
20240620031120 76 92 0.0 0.0 0.00 0.00 0.00 83 1023.3
20240620030613 76 122 0.0 0.0 0.00 0.00 0.00 84 1023.3
20240620030108 75 120 0.0 0.0 0.00 0.00 0.00 84 1023.2
20240620025603 75 134 0.0 0.0 0.00 0.00 0.00 83 1023.2
20240620025056 75 134 0.0 0.0 0.00 0.00 0.00 83 1023.1
20240620024550 76 134 0.0 0.0 0.00 0.00 0.00 83 1023.1
20240620024044 76 134 0.0 0.0 0.00 0.00 0.00 82 1023.1
20240620023539 76 134 0.0 0.0 0.00 0.00 0.00 82 1023.0
20240620023032 76 134 0.0 0.0 0.00 0.00 0.00 82 1023.0
20240620022526 76 134 0.0 0.0 0.00 0.00 0.00 81 1022.9
20240620022020 77 134 0.0 0.0 0.00 0.00 0.00 80 1022.8
20240620021514 77 134 0.0 0.0 0.00 0.00 0.00 79 1022.7
20240620021009 77 134 0.0 0.0 0.00 0.00 0.00 78 1022.7
20240620015955 78 134 0.0 0.0 0.00 0.00 0.00 76 1022.5
20240620015450 79 134 0.0 0.0 0.00 0.00 0.00 75 1022.5
20240620014944 79 129 0.0 0.0 0.00 0.00 0.00 74 1022.4
20240620014437 80 130 0.0 0.0 0.00 0.00 0.00 74 1022.4
20240620013932 80 129 0.0 0.0 0.00 0.00 0.00 73 1022.3
20240620013425 81 130 0.0 0.0 0.00 0.00 0.00 72 1022.3
20240620012414 82 129 0.0 0.0 0.00 0.00 0.00 72 1022.2
20240620011908 82 128 0.0 0.0 0.00 0.00 0.00 71 1022.1
20240620010856 83 129 0.0 0.0 0.00 0.00 0.00 71 1022.0
20240620010350 83 127 0.0 0.0 0.00 0.00 0.00 70 1022.0
20240620005843 83 127 0.0 0.0 0.00 0.00 0.00 69 1022.0
20240620005337 83 129 0.0 0.0 0.00 0.00 0.00 69 1021.9
20240620004831 83 139 0.0 0.0 0.00 0.00 0.00 69 1021.9
20240620003826 83 131 0.0 0.0 0.00 0.00 0.00 71 1021.9
20240620003326 83 129 0.0 0.0 0.00 0.00 0.00 73 1021.8
20240620002826 83 127 0.0 0.0 0.00 0.00 0.00 73 1021.8
20240620002327 83 127 0.0 0.0 0.00 0.00 0.00 72 1021.8
20240620001319 84 127 0.0 0.0 0.00 0.00 0.00 70 1021.7
20240620000819 84 129 0.0 0.0 0.00 0.00 0.00 70 1021.8
20240620000318 84 131 0.0 0.0 0.00 0.00 0.00 69 1021.7
20240619235818 84 161 0.0 0.0 0.00 0.00 0.00 70 1021.7
20240619235316 84 166 0.0 0.0 0.00 0.00 0.00 69 1021.8
20240619234814 84 167 0.0 0.0 0.00 0.00 0.00 68 1021.8
20240619233815 84 208 0.0 0.0 0.00 0.00 0.00 67 1021.8
20240619233316 85 167 0.0 0.0 0.00 0.00 0.00 66 1021.8
20240619232320 85 170 0.0 0.0 0.00 0.00 0.00 65 1021.6
20240619231316 85 236 0.0 1.0 0.00 0.00 0.00 63 1021.6
20240619230310 87 172 0.0 5.0 0.00 0.00 0.00 62 1021.5
20240619225309 87 142 0.0 3.0 0.00 0.00 0.00 59 1021.4
20240619224811 88 136 0.0 7.0 0.00 0.00 0.00 58 1021.4
20240619224309 88 210 0.0 7.0 0.00 0.00 0.00 57 1021.5
20240619223810 89 65 1.0 7.0 0.00 0.00 0.00 57 1021.5
20240619223310 89 68 1.0 7.0 0.00 0.00 0.00 54 1021.4
20240619222309 89 185 0.0 5.0 0.00 0.00 0.00 56 1021.4
20240619221810 89 160 0.0 3.0 0.00 0.00 0.00 58 1021.4
20240619221310 88 103 0.0 3.0 0.00 0.00 0.00 61 1021.4
20240619220813 87 112 1.0 6.0 0.00 0.00 0.00 61 1021.5
20240619220312 87 195 1.0 7.0 0.00 0.00 0.00 60 1021.5
20240619215813 87 213 0.0 7.0 0.00 0.00 0.00 61 1021.4